Time,TemperatureF,DewpointF,PressureIn,WindDirection,WindDirectionDegrees,WindSpeedMPH,WindSpeedGustMPH,Humidity,HourlyPrecipIn,Conditions,Clouds,dailyrainin,SoftwareType,DateUTC
2013-01-13 00:02:00,-3.3,-8.1,30.28,ESE,103,4.0,4.0,79,0.00,,,0.00,meteohub,2013-01-13 07:02:00,
2013-01-13 00:07:00,-3.3,-8.0,30.28,SE,143,1.0,4.0,80,0.00,,,0.00,meteohub,2013-01-13 07:07:00,
2013-01-13 00:12:00,-3.3,-8.0,30.29,ESE,113,2.0,5.0,80,0.00,,,0.00,meteohub,2013-01-13 07:12:00,
2013-01-13 00:17:00,-3.3,-8.1,30.29,ESE,120,2.0,5.0,79,0.00,,,0.00,meteohub,2013-01-13 07:17:00,
2013-01-13 00:22:00,-3.5,-8.1,30.29,SSE,152,1.0,5.0,80,0.00,,,0.00,meteohub,2013-01-13 07:22:00,
2013-01-13 00:27:00,-3.6,-8.3,30.29,SE,134,1.0,5.0,80,0.00,,,0.00,meteohub,2013-01-13 07:27:00,
2013-01-13 00:32:00,-3.5,-8.1,30.29,ESE,119,1.0,4.0,80,0.00,,,0.00,meteohub,2013-01-13 07:32:00,
2013-01-13 00:37:00,-3.5,-8.1,30.30,SE,126,2.0,4.0,80,0.00,,,0.00,meteohub,2013-01-13 07:37:00,
2013-01-13 00:42:00,-3.6,-8.3,30.30,South,186,1.0,7.0,80,0.00,,,0.00,meteohub,2013-01-13 07:42:00,
2013-01-13 00:47:00,-3.6,-8.3,30.30,ESE,120,2.0,7.0,80,0.00,,,0.00,meteohub,2013-01-13 07:47:00,
2013-01-13 00:52:00,-3.8,-8.5,30.30,ESE,123,3.0,7.0,80,0.00,,,0.00,meteohub,2013-01-13 07:52:00,
2013-01-13 00:57:00,-3.8,-8.1,30.30,South,178,3.0,6.0,81,0.00,,,0.00,meteohub,2013-01-13 07:57:00,
2013-01-13 01:02:00,-3.6,-8.0,30.30,SSE,153,3.0,9.0,81,0.00,,,0.00,meteohub,2013-01-13 08:02:00,
2013-01-13 01:07:00,-3.6,-8.0,30.30,South,180,5.0,9.0,81,0.00,,,0.00,meteohub,2013-01-13 08:07:00,
2013-01-13 01:12:00,-3.6,-8.0,30.30,SSE,160,3.0,12.0,81,0.00,,,0.00,meteohub,2013-01-13 08:12:00,
2013-01-13 01:17:00,-3.6,-8.0,30.30,South,170,5.0,12.0,81,0.00,,,0.00,meteohub,2013-01-13 08:17:00,
2013-01-13 01:22:00,-3.6,-8.0,30.30,SSE,153,4.0,12.0,81,0.00,,,0.00,meteohub,2013-01-13 08:22:00,
2013-01-13 01:27:00,-3.5,-7.8,30.31,SSW,198,7.0,10.0,81,0.00,,,0.00,meteohub,2013-01-13 08:27:00,
2013-01-13 01:32:00,-3.5,-7.8,30.31,South,172,6.0,11.0,81,0.00,,,0.00,meteohub,2013-01-13 08:32:00,
2013-01-13 01:37:00,-3.3,-7.6,30.31,ESE,119,5.0,11.0,81,0.00,,,0.00,meteohub,2013-01-13 08:37:00,
2013-01-13 01:42:00,-3.3,-8.0,30.32,SSE,155,5.0,10.0,80,0.00,,,0.00,meteohub,2013-01-13 08:42:00,
2013-01-13 01:47:00,-3.3,-8.0,30.32,South,178,4.0,10.0,80,0.00,,,0.00,meteohub,2013-01-13 08:47:00,
2013-01-13 01:52:00,-3.1,-7.8,30.32,SE,143,5.0,10.0,80,0.00,,,0.00,meteohub,2013-01-13 08:52:00,
2013-01-13 01:57:00,-3.1,-7.8,30.32,SSE,162,3.0,10.0,80,0.00,,,0.00,meteohub,2013-01-13 08:57:00,
2013-01-13 02:02:00,-3.1,-7.8,30.33,SSW,195,2.0,10.0,80,0.00,,,0.00,meteohub,2013-01-13 09:02:00,
2013-01-13 02:07:00,-3.3,-8.0,30.33,SSE,150,5.0,10.0,80,0.00,,,0.00,meteohub,2013-01-13 09:07:00,
2013-01-13 02:12:00,-3.3,-8.0,30.33,SE,129,4.0,10.0,80,0.00,,,0.00,meteohub,2013-01-13 09:12:00,
2013-01-13 02:17:00,-3.3,-8.0,30.33,SSE,153,3.0,10.0,80,0.00,,,0.00,meteohub,2013-01-13 09:17:00,
2013-01-13 02:22:00,-3.5,-8.1,30.33,SE,129,6.0,8.0,80,0.00,,,0.00,meteohub,2013-01-13 09:22:00,
2013-01-13 02:27:00,-3.3,-8.0,30.34,South,172,1.0,8.0,80,0.00,,,0.00,meteohub,2013-01-13 09:27:00,
2013-01-13 02:32:00,-3.3,-8.0,30.35,SE,131,2.0,8.0,80,0.00,,,0.00,meteohub,2013-01-13 09:32:00,
2013-01-13 02:37:00,-3.1,-7.8,30.34,SE,139,2.0,8.0,80,0.00,,,0.00,meteohub,2013-01-13 09:37:00,
2013-01-13 02:42:00,-3.1,-7.8,30.34,SE,133,1.0,6.0,80,0.00,,,0.00,meteohub,2013-01-13 09:42:00,
2013-01-13 02:47:00,-3.3,-8.0,30.35,SE,132,1.0,6.0,80,0.00,,,0.00,meteohub,2013-01-13 09:47:00,
2013-01-13 02:52:00,-3.3,-8.0,30.35,SE,143,1.0,5.0,80,0.00,,,0.00,meteohub,2013-01-13 09:52:00,
2013-01-13 02:57:00,-3.3,-8.0,30.34,SE,127,1.0,5.0,80,0.00,,,0.00,meteohub,2013-01-13 09:57:00,
2013-01-13 03:02:00,-3.3,-8.0,30.34,South,174,0.0,4.0,80,0.00,,,0.00,meteohub,2013-01-13 10:02:00,
2013-01-13 03:07:00,-3.3,-8.0,30.35,South,172,1.0,3.0,80,0.00,,,0.00,meteohub,2013-01-13 10:07:00,
2013-01-13 03:12:00,-3.3,-8.0,30.34,SE,135,0.0,3.0,80,0.00,,,0.00,meteohub,2013-01-13 10:12:00,
2013-01-13 03:17:00,-3.3,-7.6,30.34,ESE,102,0.0,2.0,81,0.00,,,0.00,meteohub,2013-01-13 10:17:00,
2013-01-13 03:22:00,-3.3,-7.6,30.34,ESE,121,2.0,2.0,81,0.00,,,0.00,meteohub,2013-01-13 10:22:00,
2013-01-13 03:27:00,-3.3,-7.6,30.34,SSW,200,1.0,3.0,81,0.00,,,0.00,meteohub,2013-01-13 10:27:00,
2013-01-13 03:32:00,-3.3,-7.6,30.33,ESE,117,1.0,3.0,81,0.00,,,0.00,meteohub,2013-01-13 10:32:00,
2013-01-13 03:37:00,-3.3,-7.6,30.33,SSE,156,0.0,3.0,81,0.00,,,0.00,meteohub,2013-01-13 10:37:00,
2013-01-13 03:42:00,-3.3,-7.6,30.33,SSE,166,0.0,3.0,81,0.00,,,0.00,meteohub,2013-01-13 10:42:00,
2013-01-13 03:47:00,-3.3,-7.4,30.33,ESE,114,0.0,2.0,82,0.00,,,0.00,meteohub,2013-01-13 10:47:00,
2013-01-13 03:52:00,-3.3,-7.4,30.33,SE,126,2.0,2.0,82,0.00,,,0.00,meteohub,2013-01-13 10:52:00,
2013-01-13 03:57:00,-2.9,-7.1,30.33,ESE,122,0.0,2.0,82,0.00,,,0.00,meteohub,2013-01-13 10:57:00,
2013-01-13 04:02:00,-2.7,-6.9,30.33,ESE,122,0.0,2.0,82,0.00,,,0.00,meteohub,2013-01-13 11:02:00,
2013-01-13 04:07:00,-2.7,-6.9,30.33,South,172,0.0,2.0,82,0.00,,,0.00,meteohub,2013-01-13 11:07:00,
2013-01-13 04:12:00,-2.6,-6.7,30.33,SE,139,0.0,2.0,82,0.00,,,0.00,meteohub,2013-01-13 11:12:00,
2013-01-13 04:17:00,-2.6,-6.9,30.33,SW,219,0.0,2.0,81,0.00,,,0.00,meteohub,2013-01-13 11:17:00,
2013-01-13 04:22:00,-2.6,-6.9,30.32,SE,136,0.0,2.0,81,0.00,,,0.00,meteohub,2013-01-13 11:22:00,
2013-01-13 04:27:00,-2.6,-6.9,30.32,SSE,153,1.0,2.0,81,0.00,,,0.00,meteohub,2013-01-13 11:27:00,
2013-01-13 04:32:00,-2.4,-6.7,30.32,SSE,152,2.0,6.0,81,0.00,,,0.00,meteohub,2013-01-13 11:32:00,
2013-01-13 04:37:00,-2.4,-6.7,30.32,SW,225,0.0,6.0,81,0.00,,,0.00,meteohub,2013-01-13 11:37:00,
2013-01-13 04:42:00,-2.6,-6.9,30.32,SW,217,4.0,6.0,81,0.00,,,0.00,meteohub,2013-01-13 11:42:00,
2013-01-13 04:47:00,-2.6,-6.9,30.31,WSW,238,3.0,7.0,81,0.00,,,0.00,meteohub,2013-01-13 11:47:00,
2013-01-13 04:52:00,-2.9,-7.2,30.31,SW,221,3.0,7.0,81,0.00,,,0.00,meteohub,2013-01-13 11:52:00,
2013-01-13 04:57:00,-2.9,-7.2,30.31,SW,229,1.0,7.0,81,0.00,,,0.00,meteohub,2013-01-13 11:57:00,
2013-01-13 05:02:00,-2.9,-7.2,30.31,SE,129,3.0,7.0,81,0.00,,,0.00,meteohub,2013-01-13 12:02:00,
2013-01-13 05:07:00,-2.9,-7.2,30.32,SSE,155,5.0,7.0,81,0.00,,,0.00,meteohub,2013-01-13 12:07:00,
2013-01-13 05:12:00,-3.1,-7.4,30.31,SE,137,4.0,13.0,81,0.00,,,0.00,meteohub,2013-01-13 12:12:00,
2013-01-13 05:17:00,-3.3,-7.6,30.31,ESE,122,2.0,13.0,81,0.00,,,0.00,meteohub,2013-01-13 12:17:00,
2013-01-13 05:22:00,-3.3,-7.6,30.31,ESE,113,8.0,10.0,81,0.00,,,0.00,meteohub,2013-01-13 12:22:00,
2013-01-13 05:27:00,-3.3,-7.6,30.31,ESE,123,2.0,10.0,81,0.00,,,0.00,meteohub,2013-01-13 12:27:00,
2013-01-13 05:32:00,-3.3,-7.6,30.31,WSW,242,1.0,11.0,81,0.00,,,0.00,meteohub,2013-01-13 12:32:00,
2013-01-13 05:37:00,-3.3,-7.6,30.31,SE,126,2.0,11.0,81,0.00,,,0.00,meteohub,2013-01-13 12:37:00,
2013-01-13 05:42:00,-3.3,-7.4,30.31,South,176,1.0,11.0,82,0.00,,,0.00,meteohub,2013-01-13 12:42:00,
2013-01-13 05:47:00,-3.5,-7.6,30.30,SSW,212,3.0,10.0,82,0.00,,,0.00,meteohub,2013-01-13 12:47:00,
2013-01-13 05:52:00,-3.3,-7.4,30.31,ESE,120,3.0,12.0,82,0.00,,,0.00,meteohub,2013-01-13 12:52:00,
2013-01-13 05:57:00,-3.3,-7.4,30.31,SE,134,4.0,12.0,82,0.00,,,0.00,meteohub,2013-01-13 12:57:00,
2013-01-13 06:02:00,-3.3,-7.4,30.31,East,96,4.0,12.0,82,0.00,,,0.00,meteohub,2013-01-13 13:02:00,
2013-01-13 06:07:00,-2.9,-7.1,30.31,ESE,113,4.0,10.0,82,0.00,,,0.00,meteohub,2013-01-13 13:07:00,
2013-01-13 06:12:00,-2.7,-6.9,30.31,ESE,112,6.0,9.0,82,0.00,,,0.00,meteohub,2013-01-13 13:12:00,
2013-01-13 06:17:00,-2.6,-6.9,30.32,ESE,113,4.0,9.0,81,0.00,,,0.00,meteohub,2013-01-13 13:17:00,
2013-01-13 06:22:00,-2.6,-6.9,30.32,North,356,4.0,9.0,81,0.00,,,0.00,meteohub,2013-01-13 13:22:00,
2013-01-13 06:27:00,-2.4,-6.7,30.32,East,97,9.0,12.0,81,0.00,,,0.00,meteohub,2013-01-13 13:27:00,
2013-01-13 06:32:00,-2.4,-6.7,30.32,SE,126,3.0,12.0,81,0.00,,,0.00,meteohub,2013-01-13 13:32:00,
2013-01-13 06:37:00,-2.4,-6.7,30.32,SE,139,3.0,15.0,81,0.00,,,0.00,meteohub,2013-01-13 13:37:00,
2013-01-13 06:42:00,-2.4,-6.7,30.32,SE,146,5.0,15.0,81,0.00,,,0.00,meteohub,2013-01-13 13:42:00,
2013-01-13 06:47:00,-2.4,-7.1,30.32,ESE,119,4.0,15.0,80,0.00,,,0.00,meteohub,2013-01-13 13:47:00,
2013-01-13 06:52:00,-2.0,-6.7,30.32,SSE,160,7.0,11.0,80,0.00,,,0.00,meteohub,2013-01-13 13:52:00,
2013-01-13 06:57:00,-1.8,-6.5,30.32,SE,129,4.0,13.0,80,0.00,,,0.00,meteohub,2013-01-13 13:57:00,
2013-01-13 07:02:00,-1.7,-6.3,30.32,WSW,239,6.0,16.0,80,0.00,,,0.00,meteohub,2013-01-13 14:02:00,
2013-01-13 07:07:00,-1.7,-6.3,30.33,ESE,110,5.0,16.0,80,0.00,,,0.00,meteohub,2013-01-13 14:07:00,
2013-01-13 07:12:00,-1.7,-6.3,30.33,SE,126,5.0,16.0,80,0.00,,,0.00,meteohub,2013-01-13 14:12:00,
2013-01-13 07:17:00,-1.5,-6.3,30.34,East,88,4.0,13.0,79,0.00,,,0.00,meteohub,2013-01-13 14:17:00,
2013-01-13 07:22:00,-1.7,-6.3,30.34,SE,126,4.0,13.0,80,0.00,,,0.00,meteohub,2013-01-13 14:22:00,
2013-01-13 07:27:00,-1.5,-6.2,30.35,ESE,105,7.0,13.0,80,0.00,,,0.00,meteohub,2013-01-13 14:27:00,
2013-01-13 07:32:00,-1.7,-6.3,30.35,SE,124,4.0,12.0,80,0.00,,,0.00,meteohub,2013-01-13 14:32:00,
2013-01-13 07:37:00,-1.8,-6.5,30.35,SSE,148,2.0,12.0,80,0.00,,,0.00,meteohub,2013-01-13 14:37:00,
2013-01-13 07:42:00,-2.0,-6.7,30.35,SE,129,3.0,12.0,80,0.00,,,0.00,meteohub,2013-01-13 14:42:00,
2013-01-13 07:47:00,-2.2,-6.9,30.35,ESE,122,2.0,12.0,80,0.00,,,0.00,meteohub,2013-01-13 14:47:00,
2013-01-13 07:52:00,-2.2,-6.9,30.36,ESE,119,1.0,6.0,80,0.00,,,0.00,meteohub,2013-01-13 14:52:00,
2013-01-13 07:57:00,-2.2,-7.1,30.36,ESE,105,4.0,6.0,79,0.00,,,0.00,meteohub,2013-01-13 14:57:00,
2013-01-13 08:02:00,-2.2,-7.1,30.36,SE,129,3.0,6.0,79,0.00,,,0.00,meteohub,2013-01-13 15:02:00,
2013-01-13 08:07:00,-2.2,-7.1,30.36,SE,129,7.0,7.0,79,0.00,,,0.00,meteohub,2013-01-13 15:07:00,
2013-01-13 08:12:00,-2.0,-6.9,30.35,ESE,110,7.0,9.0,79,0.00,,,0.00,meteohub,2013-01-13 15:12:00,
2013-01-13 08:17:00,-1.7,-6.5,30.35,East,95,6.0,13.0,79,0.00,,,0.00,meteohub,2013-01-13 15:17:00,
2013-01-13 08:22:00,-1.5,-6.3,30.35,SSE,159,5.0,13.0,79,0.00,,,0.00,meteohub,2013-01-13 15:22:00,
2013-01-13 08:27:00,-1.1,-6.3,30.35,SE,131,4.0,13.0,78,0.00,,,0.00,meteohub,2013-01-13 15:27:00,
2013-01-13 08:33:00,-0.9,-6.2,30.35,SE,129,4.0,13.0,78,0.00,,,0.00,meteohub,2013-01-13 15:33:00,
2013-01-13 08:38:00,-0.6,-6.0,30.36,ESE,108,2.0,16.0,77,0.00,,,0.00,meteohub,2013-01-13 15:38:00,
2013-01-13 08:43:00,-0.4,-5.8,30.36,SSE,153,2.0,16.0,77,0.00,,,0.00,meteohub,2013-01-13 15:43:00,
2013-01-13 08:48:00,0.0,-5.8,30.36,ESE,120,5.0,12.0,76,0.00,,,0.00,meteohub,2013-01-13 15:48:00,
2013-01-13 08:53:00,0.3,-5.8,30.37,East,84,7.0,9.0,75,0.00,,,0.00,meteohub,2013-01-13 15:53:00,
2013-01-13 08:58:00,0.7,-6.0,30.37,SE,128,0.0,12.0,73,0.00,,,0.00,meteohub,2013-01-13 15:58:00,
2013-01-13 09:03:00,1.0,-5.8,30.37,SSE,158,2.0,12.0,72,0.00,,,0.00,meteohub,2013-01-13 16:03:00,
2013-01-13 09:09:00,1.2,-6.0,30.36,WSW,239,3.0,12.0,71,0.00,,,0.00,meteohub,2013-01-13 16:09:00,
2013-01-13 09:14:00,1.6,-6.0,30.36,SE,146,2.0,8.0,70,0.00,,,0.00,meteohub,2013-01-13 16:14:00,
2013-01-13 09:19:00,1.8,-5.8,30.36,SE,126,3.0,12.0,70,0.00,,,0.00,meteohub,2013-01-13 16:19:00,
2013-01-13 09:24:00,1.9,-5.8,30.36,SE,131,2.0,12.0,69,0.00,,,0.00,meteohub,2013-01-13 16:24:00,
2013-01-13 09:29:00,1.9,-6.2,30.36,WSW,243,3.0,12.0,68,0.00,,,0.00,meteohub,2013-01-13 16:29:00,
2013-01-13 09:34:00,2.1,-6.0,30.37,South,170,1.0,9.0,68,0.00,,,0.00,meteohub,2013-01-13 16:34:00,
2013-01-13 09:40:00,2.5,-6.0,30.37,East,91,7.0,8.0,67,0.00,,,0.00,meteohub,2013-01-13 16:40:00,
2013-01-13 09:45:00,2.7,-5.8,30.36,SE,125,8.0,8.0,67,0.00,,,0.00,meteohub,2013-01-13 16:45:00,
2013-01-13 09:50:00,2.8,-6.0,30.36,West,280,4.0,10.0,66,0.00,,,0.00,meteohub,2013-01-13 16:50:00,
2013-01-13 09:55:00,2.8,-6.0,30.36,WSW,240,2.0,13.0,66,0.00,,,0.00,meteohub,2013-01-13 16:55:00,
2013-01-13 10:00:00,2.8,-6.5,30.35,SE,139,4.0,13.0,64,0.00,,,0.00,meteohub,2013-01-13 17:00:00,
2013-01-13 10:05:00,3.2,-6.0,30.35,SSE,162,3.0,13.0,65,0.00,,,0.00,meteohub,2013-01-13 17:05:00,
2013-01-13 10:11:00,3.2,-6.5,30.35,SSW,198,8.0,11.0,63,0.00,,,0.00,meteohub,2013-01-13 17:11:00,
2013-01-13 10:16:00,3.0,-7.1,30.35,ESE,120,10.0,11.0,62,0.00,,,0.00,meteohub,2013-01-13 17:16:00,
2013-01-13 10:21:00,2.8,-7.6,30.35,SSW,210,2.0,13.0,61,0.00,,,0.00,meteohub,2013-01-13 17:21:00,
2013-01-13 10:26:00,2.8,-7.6,30.36,ESE,123,4.0,13.0,61,0.00,,,0.00,meteohub,2013-01-13 17:26:00,
2013-01-13 10:31:00,2.8,-7.6,30.35,NW,314,9.0,13.0,61,0.00,,,0.00,meteohub,2013-01-13 17:31:00,
2013-01-13 10:37:00,3.0,-7.4,30.35,SE,145,3.0,14.0,61,0.00,,,0.00,meteohub,2013-01-13 17:37:00,
2013-01-13 10:42:00,3.0,-7.8,30.35,SE,142,6.0,14.0,60,0.00,,,0.00,meteohub,2013-01-13 17:42:00,
2013-01-13 10:47:00,3.4,-7.8,30.35,SSE,164,6.0,14.0,59,0.00,,,0.00,meteohub,2013-01-13 17:47:00,
2013-01-13 10:52:00,3.6,-7.6,30.34,SE,133,7.0,13.0,59,0.00,,,0.00,meteohub,2013-01-13 17:52:00,
2013-01-13 10:57:00,3.6,-8.0,30.34,SSE,149,4.0,12.0,58,0.00,,,0.00,meteohub,2013-01-13 17:57:00,
2013-01-13 11:02:00,3.6,-8.0,30.34,SSE,148,7.0,16.0,58,0.00,,,0.00,meteohub,2013-01-13 18:02:00,
2013-01-13 11:08:00,3.7,-7.4,30.34,ESE,106,2.0,16.0,59,0.00,,,0.00,meteohub,2013-01-13 18:08:00,
2013-01-13 11:13:00,3.9,-7.2,30.34,ESE,111,8.0,13.0,59,0.00,,,0.00,meteohub,2013-01-13 18:13:00,
2013-01-13 11:18:00,3.9,-7.2,30.34,SE,143,6.0,13.0,59,0.00,,,0.00,meteohub,2013-01-13 18:18:00,
2013-01-13 11:23:00,4.1,-7.1,30.34,SE,136,4.0,13.0,59,0.00,,,0.00,meteohub,2013-01-13 18:23:00,
2013-01-13 11:29:00,4.1,-7.1,30.33,SSE,164,5.0,13.0,59,0.00,,,0.00,meteohub,2013-01-13 18:29:00,
2013-01-13 11:34:00,4.3,-7.2,30.33,SE,143,5.0,16.0,58,0.00,,,0.00,meteohub,2013-01-13 18:34:00,
2013-01-13 11:39:00,4.5,-7.1,30.32,SE,128,5.0,16.0,58,0.00,,,0.00,meteohub,2013-01-13 18:39:00,
2013-01-13 11:44:00,4.6,-6.9,30.32,WNW,284,5.0,10.0,58,0.00,,,0.00,meteohub,2013-01-13 18:44:00,
2013-01-13 11:49:00,4.8,-7.4,30.32,ESE,108,4.0,12.0,56,0.00,,,0.00,meteohub,2013-01-13 18:49:00,
2013-01-13 11:54:00,4.8,-7.8,30.31,SSW,212,3.0,16.0,55,0.00,,,0.00,meteohub,2013-01-13 18:54:00,
2013-01-13 12:00:00,4.8,-7.4,30.31,SW,223,8.0,16.0,56,0.00,,,0.00,meteohub,2013-01-13 19:00:00,
2013-01-13 12:05:00,4.8,-7.1,30.31,SE,139,5.0,16.0,57,0.00,,,0.00,meteohub,2013-01-13 19:05:00,
2013-01-13 12:10:00,5.0,-6.9,30.30,South,176,5.0,16.0,57,0.00,,,0.00,meteohub,2013-01-13 19:10:00,
2013-01-13 12:15:00,5.0,-6.5,30.30,SSW,195,5.0,18.0,58,0.00,,,0.00,meteohub,2013-01-13 19:15:00,
2013-01-13 12:20:00,4.8,-6.7,30.30,ESE,117,6.0,18.0,58,0.00,,,0.00,meteohub,2013-01-13 19:20:00,
2013-01-13 12:25:00,4.8,-6.7,30.30,ESE,119,9.0,18.0,58,0.00,,,0.00,meteohub,2013-01-13 19:25:00,
2013-01-13 12:30:00,4.8,-6.3,30.30,SW,228,2.0,15.0,59,0.00,,,0.00,meteohub,2013-01-13 19:30:00,
2013-01-13 12:35:00,4.8,-6.0,30.30,SE,126,7.0,15.0,60,0.00,,,0.00,meteohub,2013-01-13 19:35:00,
2013-01-13 12:40:00,5.0,-6.2,30.29,SSW,198,4.0,15.0,59,0.00,,,0.00,meteohub,2013-01-13 19:40:00,
2013-01-13 12:46:00,4.8,-6.0,30.29,SSE,153,3.0,12.0,60,0.00,,,0.00,meteohub,2013-01-13 19:46:00,
2013-01-13 12:51:00,5.0,-5.8,30.29,WNW,290,2.0,12.0,60,0.00,,,0.00,meteohub,2013-01-13 19:51:00,
2013-01-13 12:56:00,5.5,-5.3,30.29,SSE,153,5.0,12.0,60,0.00,,,0.00,meteohub,2013-01-13 19:56:00,
2013-01-13 13:01:00,5.7,-6.2,30.29,SSE,160,3.0,9.0,57,0.00,,,0.00,meteohub,2013-01-13 20:01:00,
2013-01-13 13:06:00,6.3,-6.5,30.29,SE,129,6.0,12.0,55,0.00,,,0.00,meteohub,2013-01-13 20:06:00,
2013-01-13 13:11:00,6.4,-6.7,30.28,SW,224,4.0,20.0,54,0.00,,,0.00,meteohub,2013-01-13 20:11:00,
2013-01-13 13:16:00,6.4,-6.7,30.29,SW,224,7.0,20.0,54,0.00,,,0.00,meteohub,2013-01-13 20:16:00,
2013-01-13 13:21:00,7.0,-5.8,30.29,SW,231,4.0,20.0,55,0.00,,,0.00,meteohub,2013-01-13 20:21:00,
2013-01-13 13:26:00,7.5,-5.6,30.29,ESE,113,7.0,14.0,54,0.00,,,0.00,meteohub,2013-01-13 20:26:00,
2013-01-13 13:31:00,7.5,-6.0,30.29,SE,126,7.0,17.0,53,0.00,,,0.00,meteohub,2013-01-13 20:31:00,
2013-01-13 13:36:00,8.1,-6.0,30.29,SW,232,7.0,21.0,52,0.00,,,0.00,meteohub,2013-01-13 20:36:00,
2013-01-13 13:41:00,8.2,-5.8,30.28,NNW,336,4.0,21.0,52,0.00,,,0.00,meteohub,2013-01-13 20:41:00,
2013-01-13 13:46:00,8.2,-6.2,30.28,SSE,160,7.0,21.0,51,0.00,,,0.00,meteohub,2013-01-13 20:46:00,
2013-01-13 13:51:00,8.1,-6.3,30.28,ESE,114,4.0,17.0,51,0.00,,,0.00,meteohub,2013-01-13 20:51:00,
2013-01-13 13:57:00,7.9,-6.5,30.29,South,169,3.0,17.0,51,0.00,,,0.00,meteohub,2013-01-13 20:57:00,
2013-01-13 14:02:00,7.5,-6.5,30.29,ESE,122,5.0,17.0,52,0.00,,,0.00,meteohub,2013-01-13 21:02:00,
2013-01-13 14:07:00,7.3,-6.2,30.29,ESE,105,3.0,17.0,53,0.00,,,0.00,meteohub,2013-01-13 21:07:00,
2013-01-13 14:12:00,7.3,-6.2,30.30,SSE,165,3.0,17.0,53,0.00,,,0.00,meteohub,2013-01-13 21:12:00,
2013-01-13 14:17:00,7.2,-6.3,30.30,SE,131,2.0,11.0,53,0.00,,,0.00,meteohub,2013-01-13 21:17:00,
2013-01-13 14:22:00,7.2,-6.3,30.30,NNE,18,6.0,11.0,53,0.00,,,0.00,meteohub,2013-01-13 21:22:00,
2013-01-13 14:27:00,7.2,-6.0,30.30,West,264,7.0,11.0,54,0.00,,,0.00,meteohub,2013-01-13 21:27:00,
2013-01-13 14:32:00,7.0,-6.5,30.31,SSE,152,2.0,11.0,53,0.00,,,0.00,meteohub,2013-01-13 21:32:00,
2013-01-13 14:38:00,6.6,-6.9,30.31,SE,134,4.0,14.0,53,0.00,,,0.00,meteohub,2013-01-13 21:38:00,
2013-01-13 14:43:00,7.0,-6.5,30.32,SSE,153,3.0,14.0,53,0.00,,,0.00,meteohub,2013-01-13 21:43:00,
2013-01-13 14:48:00,7.3,-6.2,30.32,South,171,2.0,14.0,53,0.00,,,0.00,meteohub,2013-01-13 21:48:00,
2013-01-13 14:53:00,7.9,-5.6,30.32,ESE,117,3.0,14.0,53,0.00,,,0.00,meteohub,2013-01-13 21:53:00,
2013-01-13 14:58:00,8.1,-6.0,30.32,ESE,122,2.0,14.0,52,0.00,,,0.00,meteohub,2013-01-13 21:58:00,
2013-01-13 15:03:00,8.1,-6.0,30.32,SSE,165,2.0,14.0,52,0.00,,,0.00,meteohub,2013-01-13 22:03:00,
2013-01-13 15:08:00,8.1,-6.0,30.33,South,169,2.0,9.0,52,0.00,,,0.00,meteohub,2013-01-13 22:08:00,
2013-01-13 15:13:00,7.5,-6.0,30.33,SE,142,2.0,9.0,53,0.00,,,0.00,meteohub,2013-01-13 22:13:00,
2013-01-13 15:18:00,7.7,-5.4,30.34,ESE,122,4.0,12.0,54,0.00,,,0.00,meteohub,2013-01-13 22:18:00,
2013-01-13 15:24:00,7.9,-4.9,30.33,South,181,2.0,12.0,55,0.00,,,0.00,meteohub,2013-01-13 22:24:00,
2013-01-13 15:29:00,7.9,-5.3,30.34,SSW,194,3.0,10.0,54,0.00,,,0.00,meteohub,2013-01-13 22:29:00,
2013-01-13 15:34:00,7.9,-4.9,30.33,WNW,302,1.0,8.0,55,0.00,,,0.00,meteohub,2013-01-13 22:34:00,
2013-01-13 15:39:00,7.9,-4.9,30.33,SW,218,3.0,8.0,55,0.00,,,0.00,meteohub,2013-01-13 22:39:00,
2013-01-13 15:44:00,7.5,-5.3,30.33,West,273,3.0,9.0,55,0.00,,,0.00,meteohub,2013-01-13 22:44:00,
2013-01-13 15:49:00,7.5,-5.3,30.34,South,175,0.0,9.0,55,0.00,,,0.00,meteohub,2013-01-13 22:49:00,
2013-01-13 15:54:00,7.3,-5.4,30.34,SSW,197,2.0,9.0,55,0.00,,,0.00,meteohub,2013-01-13 22:54:00,
2013-01-13 15:59:00,7.5,-4.9,30.34,SE,139,3.0,7.0,56,0.00,,,0.00,meteohub,2013-01-13 22:59:00,
2013-01-13 16:04:00,7.5,-4.9,30.34,SSE,158,2.0,8.0,56,0.00,,,0.00,meteohub,2013-01-13 23:04:00,
2013-01-13 16:10:00,7.5,-4.9,30.34,SE,139,2.0,8.0,56,0.00,,,0.00,meteohub,2013-01-13 23:10:00,
2013-01-13 16:15:00,7.3,-5.1,30.34,West,264,2.0,8.0,56,0.00,,,0.00,meteohub,2013-01-13 23:15:00,
2013-01-13 16:20:00,7.3,-5.1,30.34,SSW,210,3.0,7.0,56,0.00,,,0.00,meteohub,2013-01-13 23:20:00,
2013-01-13 16:25:00,7.3,-5.1,30.34,ENE,78,2.0,6.0,56,0.00,,,0.00,meteohub,2013-01-13 23:25:00,
2013-01-13 16:30:00,7.3,-5.1,30.34,SSE,148,2.0,7.0,56,0.00,,,0.00,meteohub,2013-01-13 23:30:00,
2013-01-13 16:35:00,7.0,-5.1,30.34,SE,139,1.0,7.0,57,0.00,,,0.00,meteohub,2013-01-13 23:35:00,
2013-01-13 16:41:00,6.8,-5.3,30.35,SSE,155,3.0,7.0,57,0.00,,,0.00,meteohub,2013-01-13 23:41:00,
2013-01-13 16:46:00,6.4,-5.3,30.35,SSE,153,4.0,6.0,58,0.00,,,0.00,meteohub,2013-01-13 23:46:00,
2013-01-13 16:51:00,6.3,-5.1,30.35,ESE,120,2.0,7.0,59,0.00,,,0.00,meteohub,2013-01-13 23:51:00,
2013-01-13 16:56:00,5.9,-5.3,30.34,SE,143,1.0,8.0,59,0.00,,,0.00,meteohub,2013-01-13 23:56:00,
2013-01-13 17:01:00,5.5,-5.3,30.34,SSE,153,2.0,8.0,60,0.00,,,0.00,meteohub,2013-01-14 00:01:00,
2013-01-13 17:06:00,5.4,-5.4,30.35,SE,136,3.0,8.0,60,0.00,,,0.00,meteohub,2013-01-14 00:06:00,
2013-01-13 17:11:00,5.2,-5.3,30.35,WNW,282,3.0,7.0,61,0.00,,,0.00,meteohub,2013-01-14 00:11:00,
2013-01-13 17:16:00,5.2,-5.3,30.35,SE,146,2.0,7.0,61,0.00,,,0.00,meteohub,2013-01-14 00:16:00,
2013-01-13 17:22:00,4.8,-5.6,30.35,SSE,148,1.0,6.0,61,0.00,,,0.00,meteohub,2013-01-14 00:22:00,
2013-01-13 17:27:00,4.6,-5.4,30.35,SE,142,4.0,6.0,62,0.00,,,0.00,meteohub,2013-01-14 00:27:00,
2013-01-13 17:32:00,4.6,-5.4,30.36,South,174,3.0,6.0,62,0.00,,,0.00,meteohub,2013-01-14 00:32:00,
2013-01-13 17:37:00,4.5,-5.3,30.36,SE,141,3.0,6.0,63,0.00,,,0.00,meteohub,2013-01-14 00:37:00,
2013-01-13 17:42:00,4.3,-5.4,30.36,ESE,119,2.0,6.0,63,0.00,,,0.00,meteohub,2013-01-14 00:42:00,
2013-01-13 17:47:00,4.3,-5.4,30.36,SSE,149,3.0,5.0,63,0.00,,,0.00,meteohub,2013-01-14 00:47:00,
2013-01-13 17:52:00,4.1,-5.4,30.36,SSE,150,1.0,5.0,64,0.00,,,0.00,meteohub,2013-01-14 00:52:00,
2013-01-13 17:57:00,3.9,-5.6,30.36,SE,135,2.0,5.0,64,0.00,,,0.00,meteohub,2013-01-14 00:57:00,
2013-01-13 18:02:00,3.7,-5.6,30.36,SW,218,2.0,4.0,64,0.00,,,0.00,meteohub,2013-01-14 01:02:00,
2013-01-13 18:07:00,3.6,-5.6,30.37,SE,130,2.0,5.0,65,0.00,,,0.00,meteohub,2013-01-14 01:07:00,
2013-01-13 18:12:00,3.6,-5.6,30.37,ESE,120,2.0,5.0,65,0.00,,,0.00,meteohub,2013-01-14 01:12:00,
2013-01-13 18:17:00,3.6,-5.6,30.37,ESE,113,2.0,5.0,65,0.00,,,0.00,meteohub,2013-01-14 01:17:00,
2013-01-13 18:22:00,3.4,-5.8,30.37,SE,142,1.0,5.0,65,0.00,,,0.00,meteohub,2013-01-14 01:22:00,
2013-01-13 18:27:00,3.4,-5.8,30.37,SE,126,2.0,3.0,65,0.00,,,0.00,meteohub,2013-01-14 01:27:00,
2013-01-13 18:32:00,3.4,-5.4,30.38,ESE,119,2.0,3.0,66,0.00,,,0.00,meteohub,2013-01-14 01:32:00,
2013-01-13 18:37:00,3.4,-5.4,30.38,SE,131,1.0,3.0,66,0.00,,,0.00,meteohub,2013-01-14 01:37:00,
2013-01-13 18:42:00,2.7,-6.2,30.38,ESE,117,3.0,3.0,66,0.00,,,0.00,meteohub,2013-01-14 01:42:00,
2013-01-13 18:47:00,2.5,-6.0,30.38,SE,131,2.0,3.0,67,0.00,,,0.00,meteohub,2013-01-14 01:47:00,
2013-01-13 18:52:00,2.3,-5.8,30.38,ESE,110,2.0,4.0,68,0.00,,,0.00,meteohub,2013-01-14 01:52:00,
2013-01-13 18:57:00,2.5,-5.6,30.38,ESE,120,3.0,4.0,68,0.00,,,0.00,meteohub,2013-01-14 01:57:00,
2013-01-13 19:02:00,2.5,-5.6,30.38,SE,129,3.0,4.0,68,0.00,,,0.00,meteohub,2013-01-14 02:02:00,
2013-01-13 19:07:00,2.5,-5.6,30.37,SE,134,2.0,4.0,68,0.00,,,0.00,meteohub,2013-01-14 02:07:00,
2013-01-13 19:12:00,2.7,-5.3,30.37,ESE,115,3.0,4.0,69,0.00,,,0.00,meteohub,2013-01-14 02:12:00,
2013-01-13 19:17:00,3.0,-5.1,30.38,ESE,117,2.0,5.0,68,0.00,,,0.00,meteohub,2013-01-14 02:17:00,
2013-01-13 19:22:00,3.4,-4.7,30.38,SE,125,4.0,5.0,68,0.00,,,0.00,meteohub,2013-01-14 02:22:00,
2013-01-13 19:27:00,3.6,-4.5,30.38,SSE,152,3.0,5.0,68,0.00,,,0.00,meteohub,2013-01-14 02:27:00,
2013-01-13 19:32:00,3.6,-4.5,30.38,ESE,120,2.0,4.0,68,0.00,,,0.00,meteohub,2013-01-14 02:32:00,
2013-01-13 19:37:00,3.6,-4.5,30.38,ESE,115,2.0,5.0,68,0.00,,,0.00,meteohub,2013-01-14 02:37:00,
2013-01-13 19:42:00,3.6,-4.5,30.38,ESE,115,4.0,5.0,68,0.00,,,0.00,meteohub,2013-01-14 02:42:00,
2013-01-13 19:47:00,3.6,-4.5,30.38,ESE,115,4.0,5.0,68,0.00,,,0.00,meteohub,2013-01-14 02:47:00,
2013-01-13 19:52:00,2.8,-5.6,30.38,ESE,109,3.0,5.0,67,0.00,,,0.00,meteohub,2013-01-14 02:52:00,
2013-01-13 19:57:00,2.7,-5.4,30.38,ESE,122,3.0,5.0,68,0.00,,,0.00,meteohub,2013-01-14 02:57:00,
2013-01-13 20:02:00,2.5,-5.4,30.38,ESE,114,3.0,5.0,69,0.00,,,0.00,meteohub,2013-01-14 03:02:00,
2013-01-13 20:07:00,2.3,-5.6,30.39,ESE,112,3.0,5.0,69,0.00,,,0.00,meteohub,2013-01-14 03:07:00,
2013-01-13 20:12:00,2.5,-5.1,30.38,ESE,115,3.0,5.0,70,0.00,,,0.00,meteohub,2013-01-14 03:12:00,
2013-01-13 20:17:00,2.5,-5.4,30.38,SE,124,3.0,5.0,69,0.00,,,0.00,meteohub,2013-01-14 03:17:00,
2013-01-13 20:22:00,2.5,-5.4,30.38,ESE,113,3.0,5.0,69,0.00,,,0.00,meteohub,2013-01-14 03:22:00,
2013-01-13 20:27:00,2.7,-5.3,30.38,SE,125,2.0,5.0,69,0.00,,,0.00,meteohub,2013-01-14 03:27:00,
2013-01-13 20:32:00,2.7,-5.3,30.38,ESE,114,2.0,5.0,69,0.00,,,0.00,meteohub,2013-01-14 03:32:00,
2013-01-13 20:37:00,2.7,-5.3,30.38,ESE,116,3.0,4.0,69,0.00,,,0.00,meteohub,2013-01-14 03:37:00,
2013-01-13 20:42:00,2.7,-5.3,30.38,ESE,116,4.0,4.0,69,0.00,,,0.00,meteohub,2013-01-14 03:42:00,
2013-01-13 20:47:00,2.7,-5.3,30.38,ESE,122,3.0,4.0,69,0.00,,,0.00,meteohub,2013-01-14 03:47:00,
2013-01-13 20:52:00,2.7,-5.3,30.38,SE,133,1.0,5.0,69,0.00,,,0.00,meteohub,2013-01-14 03:52:00,
2013-01-13 20:57:00,2.8,-5.1,30.38,ESE,115,2.0,5.0,69,0.00,,,0.00,meteohub,2013-01-14 03:57:00,
2013-01-13 21:02:00,2.7,-5.4,30.38,ESE,116,3.0,4.0,68,0.00,,,0.00,meteohub,2013-01-14 04:02:00,
2013-01-13 21:07:00,2.5,-5.6,30.38,ESE,113,4.0,4.0,68,0.00,,,0.00,meteohub,2013-01-14 04:07:00,
2013-01-13 21:12:00,2.3,-5.8,30.38,ESE,120,3.0,4.0,68,0.00,,,0.00,meteohub,2013-01-14 04:12:00,
2013-01-13 21:17:00,1.8,-6.0,30.39,ESE,117,3.0,4.0,69,0.00,,,0.00,meteohub,2013-01-14 04:17:00,
2013-01-13 21:22:00,1.6,-6.0,30.39,ESE,108,1.0,4.0,70,0.00,,,0.00,meteohub,2013-01-14 04:22:00,
2013-01-13 21:27:00,1.4,-6.2,30.39,ESE,122,1.0,4.0,70,0.00,,,0.00,meteohub,2013-01-14 04:27:00,
2013-01-13 21:32:00,1.0,-6.2,30.39,ESE,123,1.0,3.0,71,0.00,,,0.00,meteohub,2013-01-14 04:32:00,
2013-01-13 21:37:00,1.0,-5.8,30.39,ESE,122,1.0,2.0,72,0.00,,,0.00,meteohub,2013-01-14 04:37:00,
2013-01-13 21:42:00,1.2,-6.0,30.39,ESE,122,1.0,2.0,71,0.00,,,0.00,meteohub,2013-01-14 04:42:00,
2013-01-13 21:47:00,1.2,-6.0,30.39,ESE,113,1.0,1.0,71,0.00,,,0.00,meteohub,2013-01-14 04:47:00,
2013-01-13 21:52:00,1.4,-5.8,30.39,ESE,112,0.0,2.0,71,0.00,,,0.00,meteohub,2013-01-14 04:52:00,
2013-01-13 21:57:00,1.6,-5.6,30.39,ESE,111,0.0,2.0,71,0.00,,,0.00,meteohub,2013-01-14 04:57:00,
2013-01-13 22:01:00,1.4,-6.2,30.39,ESE,112,0.0,2.0,70,0.00,,,0.00,meteohub,2013-01-14 05:01:00,
2013-01-13 22:02:00,1.2,-6.3,30.39,ESE,112,0.0,2.0,70,0.00,,,0.00,meteohub,2013-01-14 05:02:00,
2013-01-13 22:05:00,1.0,-6.5,30.39,ESE,112,0.0,1.0,70,0.00,,,0.00,meteohub,2013-01-14 05:05:00,
2013-01-13 22:11:00,0.9,-6.3,30.39,ESE,112,0.0,0.0,71,0.00,,,0.00,meteohub,2013-01-14 05:11:00,
2013-01-13 22:16:00,0.5,-6.2,30.40,ESE,112,0.0,0.0,73,0.00,,,0.00,meteohub,2013-01-14 05:16:00,
2013-01-13 22:21:00,0.1,-6.2,30.39,SE,126,0.0,1.0,74,0.00,,,0.00,meteohub,2013-01-14 05:21:00,
2013-01-13 22:26:00,0.0,-6.0,30.39,ESE,119,1.0,1.0,75,0.00,,,0.00,meteohub,2013-01-14 05:26:00,
2013-01-13 22:31:00,0.3,-5.8,30.39,ESE,119,1.0,2.0,75,0.00,,,0.00,meteohub,2013-01-14 05:31:00,
2013-01-13 22:36:00,0.3,-6.3,30.39,ESE,123,0.0,2.0,73,0.00,,,0.00,meteohub,2013-01-14 05:36:00,
2013-01-13 22:42:00,0.3,-6.3,30.39,ESE,122,0.0,2.0,73,0.00,,,0.00,meteohub,2013-01-14 05:42:00,
2013-01-13 22:47:00,0.3,-6.3,30.39,ESE,122,0.0,1.0,73,0.00,,,0.00,meteohub,2013-01-14 05:47:00,
2013-01-13 22:52:00,0.1,-6.5,30.38,ESE,122,0.0,0.0,73,0.00,,,0.00,meteohub,2013-01-14 05:52:00,
2013-01-13 22:57:00,0.1,-6.5,30.38,ESE,122,0.0,0.0,73,0.00,,,0.00,meteohub,2013-01-14 05:57:00,
2013-01-13 23:02:00,0.1,-6.5,30.39,ESE,122,0.0,0.0,73,0.00,,,0.00,meteohub,2013-01-14 06:02:00,
2013-01-13 23:07:00,-0.2,-6.9,30.39,ESE,122,0.0,0.0,73,0.00,,,0.00,meteohub,2013-01-14 06:07:00,
2013-01-13 23:12:00,-0.8,-7.1,30.39,ESE,122,0.0,0.0,74,0.00,,,0.00,meteohub,2013-01-14 06:12:00,
2013-01-13 23:17:00,-1.1,-6.9,30.39,ESE,122,0.0,0.0,76,0.00,,,0.00,meteohub,2013-01-14 06:17:00,
2013-01-13 23:22:00,-1.3,-6.5,30.39,ESE,122,0.0,0.0,78,0.00,,,0.00,meteohub,2013-01-14 06:22:00,
2013-01-13 23:27:00,-1.1,-6.0,30.39,ESE,123,0.0,0.0,79,0.00,,,0.00,meteohub,2013-01-14 06:27:00,
2013-01-13 23:32:00,-0.9,-5.6,30.39,ESE,123,0.0,0.0,80,0.00,,,0.00,meteohub,2013-01-14 06:32:00,
2013-01-13 23:37:00,-0.9,-6.2,30.39,ESE,123,0.0,0.0,78,0.00,,,0.00,meteohub,2013-01-14 06:37:00,
2013-01-13 23:42:00,-0.9,-5.8,30.39,ESE,122,0.0,0.0,79,0.00,,,0.00,meteohub,2013-01-14 06:42:00,
2013-01-13 23:47:00,-1.1,-5.8,30.39,ESE,122,0.0,0.0,80,0.00,,,0.00,meteohub,2013-01-14 06:47:00,
2013-01-13 23:52:00,-1.3,-6.0,30.39,ESE,122,0.0,0.0,80,0.00,,,0.00,meteohub,2013-01-14 06:52:00,
2013-01-13 23:57:00,-1.7,-6.0,30.39,ESE,122,0.0,0.0,81,0.00,,,0.00,meteohub,2013-01-14 06:57:00,